Dewpoint
38 38 38 37 37 36 36 36 36 36 36 37 37 37 38 37 36 34 33 32 30 29 27 26 25 25 26 29 30 30 30 30 31 31 32 32 33 33 33 33 33 34 34 34 34 34 34 35 35 35 35 35 35 36 36 36 36 36 36 36 37 37 38 38 38 38 38 38 38 38 38 38 38 39 39 39 39 40 40 40 40 40 40 41 41 41
37 37 37 37 37 36 36 36 37 36 36 36 36 36 35 33 33 32 30 30 29 28 26 25 25 24 22 27 29 30 29 30 30 31 32 32 33 33 33 33 33 33 33 33 34 34 34 34 35 35 35 35 35 35 35 35 35 36 36 36 36 37 37 37 37 37 38 38 38 38 38 38 38 38 38 38 39 39 39 39 39 39 40 40 40 41
36 37 37 37 37 36 36 36 36 37 36 36 36 36 34 33 33 32 29 29 28 27 26 25 25 24 22 25 28 29 30 30 31 31 32 32 32 32 32 33 33 33 33 33 33 33 34 34 34 34 34 34 34 35 35 35 35 35 35 36 36 36 36 36 36 36 36 37 37 37 37 37 37 37 38 38 38 38 38 39 39 39 39 39 39 40
36 36 36 36 36 36 36 36 36 36 36 36 35 34 33 32 31 31 29 28 27 26 26 24 24 23 22 24 27 29 30 30 31 31 31 31 31 31 31 32 32 32 33 33 33 33 33 33 33 33 34 34 34 34 34 35 35 35 35 35 35 35 35 35 36 36 36 36 36 36 36 36 36 37 37 37 38 38 38 38 38 38 38 39 39 39
35 36 36 36 36 36 36 36 36 36 35 34 34 33 32 31 30 30 29 28 27 26 25 24 23 22 22 23 26 30 31 30 30 30 30 30 30 30 30 31 31 31 32 32 32 33 33 33 33 33 33 33 34 34 34 34 35 35 35 35 35 35 35 35 35 35 35 35 36 36 36 36 36 36 37 37 37 38 38 38 38 38 38 38 39 39
36 36 36 36 36 36 36 36 36 36 35 34 33 32 31 31 30 30 29 28 27 26 24 24 23 23 23 24 27 30 31 30 29 29 29 29 29 29 30 30 31 31 31 32 32 32 33 33 33 33 33 33 34 34 34 34 34 34 34 34 35 35 35 35 35 35 35 35 35 35 35 36 36 36 36 36 37 37 37 38 38 38 38 38 38 38
35 36 36 36 36 36 36 36 36 36 36 34 33 33 33 32 31 30 29 27 26 25 24 24 24 24 24 25 28 30 30 30 30 29 29 29 29 29 30 30 30 31 31 32 32 32 33 33 33 33 33 33 33 33 33 33 33 33 33 34 34 34 34 34 34 34 35 35 35 35 35 35 35 35 35 36 36 36 37 37 37 38 38 38 38 38
34 35 35 35 35 35 35 36 36 36 35 34 34 33 33 31 29 28 26 25 24 24 24 25 24 24 23 22 24 27 26 27 28 28 29 29 30 30 30 31 31 31 31 32 32 32 32 32 33 33 33 33 33 33 33 33 33 33 33 33 33 33 33 33 33 34 34 34 34 34 34 34 34 35 35 35 35 35 36 36 37 37 38 38 38 38
33 33 34 33 33 34 34 34 34 33 33 33 33 31 29 27 26 24 24 24 24 24 24 24 23 22 21 20 20 22 26 27 27 27 26 27 28 29 31 31 31 31 31 31 31 31 31 32 32 32 32 32 32 32 32 32 32 32 32 32 32 32 33 33 33 33 33 33 33 34 34 34 34 34 34 34 35 35 35 36 36 37 37 38 38 38
33 33 33 33 33 33 33 32 31 30 29 29 29 28 26 24 23 23 23 23 23 24 24 23 21 20 20 19 19 21 25 28 29 28 27 28 28 28 30 30 30 31 30 30 30 31 30 31 31 31 31 31 31 31 31 31 31 31 31 31 31 32 32 32 33 33 33 33 33 33 33 34 34 34 34 34 34 34 35 35 36 36 37 37 38 38
32 32 32 32 32 31 30 29 29 27 27 26 26 25 25 24 23 22 22 22 22 22 22 21 20 20 19 19 20 21 24 24 24 26 28 28 29 29 29 29 30 30 30 30 30 30 30 30 30 30 30 30 30 30 30 30 30 30 30 31 31 31 31 32 32 32 33 33 33 33 33 33 33 34 34 34 34 34 35 35 35 36 36 37 37 38
31 31 31 30 29 29 28 28 27 27 26 24 24 24 23 23 23 22 22 22 22 22 20 20 20 20 20 20 20 22 22 21 21 22 23 24 26 27 27 27 28 29 29 29 30 29 29 29 29 29 29 29 29 29 29 29 29 30 30 30 30 30 31 31 32 32 32 33 33 33 33 33 33 33 34 34 34 34 35 35 35 35 36 36 37 38
30 30 29 29 28 27 27 26 26 25 24 23 23 22 22 23 23 23 22 22 22 21 20 20 20 20 20 20 21 21 21 21 21 21 22 22 23 24 23 23 23 24 24 25 25 26 29 29 29 29 29 29 29 29 29 29 29 29 30 30 30 30 31 31 32 32 32 33 33 33 33 33 33 34 34 34 34 35 35 35 35 35 36 36 37 37
29 28 28 27 27 26 26 25 24 24 23 22 22 22 22 22 23 22 21 21 21 21 20 20 19 20 20 21 21 22 21 21 21 22 22 22 22 22 22 22 22 22 22 22 22 24 28 29 28 28 29 29 29 29 30 30 29 30 30 30 30 31 31 32 32 32 33 33 33 33 33 33 34 34 34 34 35 35 35 35 35 36 36 36 37 37
27 27 26 26 26 25 25 24 23 22 22 22 22 22 23 22 22 21 20 20 20 20 20 19 18 19 19 20 21 22 22 22 21 21 22 22 22 22 22 22 22 22 22 22 22 23 27 27 25 25 27 28 29 30 30 30 30 30 30 30 31 31 32 32 32 32 33 33 33 33 33 34 34 34 34 34 35 35 35 35 35 36 36 36 37 37
27 26 25 24 24 24 23 23 22 21 21 22 22 22 21 21 20 20 19 19 19 19 19 18 18 18 18 20 22 23 23 22 22 21 21 22 22 23 22 22 22 22 22 22 22 22 23 23 23 24 24 27 29 29 29 29 30 30 30 31 31 31 31 32 32 32 33 33 33 33 33 34 34 34 34 34 35 35 35 35 35 36 36 36 36 37
26 25 24 24 23 22 22 22 22 21 21 21 22 21 21 20 20 20 19 19 19 19 19 18 18 17 17 19 20 22 23 22 22 22 22 22 23 23 23 22 22 22 22 22 22 22 22 22 22 23 24 27 29 29 29 29 29 30 30 30 31 31 31 32 32 32 33 33 33 33 33 34 34 34 34 34 35 35 35 35 35 35 36 36 36 36
25 24 24 23 22 22 22 22 21 21 21 21 21 21 20 21 20 20 20 20 19 19 19 18 18 17 17 17 18 20 22 22 22 22 22 23 23 23 23 22 22 22 21 22 22 22 22 22 22 22 24 28 29 29 29 29 29 30 30 30 31 31 32 32 32 33 33 33 33 33 33 33 34 34 34 34 34 34 35 35 35 35 35 35 36 36
24 24 23 23 22 22 22 21 21 21 20 20 20 20 21 21 21 20 20 20 19 19 19 19 19 18 18 18 19 20 23 23 23 23 23 23 23 23 23 22 22 22 22 22 22 23 22 22 24 26 29 29 29 29 29 29 29 30 30 31 31 31 32 32 32 33 33 33 33 33 33 33 33 34 34 34 34 34 34 34 35 35 35 35 35 36
24 23 23 22 22 21 21 22 23 23 22 23 22 21 21 20 20 20 20 20 20 20 20 20 19 19 19 19 20 22 24 24 24 24 23 23 23 22 22 22 22 22 21 21 22 22 22 22 22 24 28 29 29 29 29 29 29 30 30 31 31 31 32 32 32 33 33 33 33 33 33 33 33 33 34 34 34 34 34 34 35 35 35 35 35 35
23 22 22 22 21 21 21 22 23 24 26 25 23 21 21 20 20 20 20 21 21 21 21 21 20 20 20 21 23 24 26 25 24 24 23 22 22 21 21 21 21 21 21 21 22 22 22 21 21 22 26 28 28 29 29 29 29 30 30 31 31 31 32 32 32 32 33 33 33 33 33 33 33 33 34 34 34 34 34 34 34 35 35 35 35 35
23 22 21 21 21 22 24 23 24 27 28 24 23 22 21 20 20 20 20 20 21 22 22 22 23 24 26 27 28 28 26 24 24 23 22 21 21 21 21 21 21 21 21 21 21 21 21 21 20 21 26 28 28 28 28 29 29 30 30 30 31 31 31 32 32 32 32 32 33 33 33 33 33 33 33 33 33 33 34 34 34 34 34 34 34 35
24 23 22 22 22 23 24 23 24 25 27 24 24 23 21 21 20 20 20 21 22 23 24 26 28 29 29 29 27 25 24 24 23 23 21 21 20 20 20 21 21 20 20 20 20 20 20 20 20 22 26 27 28 28 28 29 29 29 30 30 31 31 31 31 31 31 32 32 32 32 32 32 33 33 33 33 33 33 33 33 33 33 33 34 34 34
23 23 23 23 23 23 23 23 23 22 23 23 23 22 21 22 22 23 24 24 26 27 29 30 29 28 26 25 24 23 23 23 23 22 21 21 20 20 20 20 20 20 20 20 20 20 20 20 20 21 24 26 27 28 28 29 29 29 29 30 30 30 30 31 31 31 31 31 31 32 32 32 32 32 32 33 33 33 33 33 33 33 33 33 34 34
24 24 24 24 25 26 26 24 24 25 24 23 22 22 23 24 27 28 27 27 27 28 28 27 26 24 23 23 22 22 21 21 22 22 21 20 20 20 20 20 20 20 20 20 20 20 20 20 20 21 22 24 26 28 28 28 29 29 29 29 29 30 30 30 30 30 31 31 31 31 32 32 32 32 32 32 32 33 33 33 33 33 33 33 33 34
29 28 27 27 28 29 28 28 29 29 28 27 25 24 25 27 28 27 26 26 26 26 26 25 24 23 22 22 21 21 21 20 21 21 21 20 20 20 20 20 20 20 20 20 20 20 20 20 21 21 21 22 25 27 28 28 28 28 29 29 29 29 29 29 30 30 30 30 30 31 31 31 31 32 32 32 32 32 33 33 33 33 33 33 33 33
29 29 28 28 29 29 29 29 29 29 29 29 29 28 29 29 28 27 26 26 26 26 26 24 24 22 22 21 20 20 20 22 22 21 20 20 20 20 20 20 20 20 20 20 20 21 22 22 22 22 21 21 23 26 27 28 28 28 28 28 29 29 29 29 29 29 30 30 30 30 30 31 31 31 31 31 32 32 32 32 32 32 32 32 32 32
29 29 29 29 28 28 28 28 28 29 29 29 29 29 29 29 28 28 27 27 27 26 25 24 23 22 21 20 20 20 20 22 22 22 21 20 20 20 20 20 20 20 20 20 21 22 24 23 23 22 21 21 22 24 27 27 27 27 28 28 28 28 28 29 29 29 29 29 29 30 30 30 30 30 31 31 31 31 31 31 31 32 31 31 30 29
29 29 29 29 28 28 28 28 28 28 28 28 28 28 28 28 28 27 27 27 26 26 25 24 24 23 22 21 21 21 20 21 22 22 21 20 20 20 20 20 20 20 20 20 20 21 21 22 22 21 21 23 24 24 24 25 26 26 27 27 27 27 28 28 28 28 29 29 29 29 29 30 30 30 30 30 30 31 31 31 31 30 30 29 29 29
24 25 25 26 26 26 26 26 27 28 28 27 27 27 26 27 28 28 27 27 26 26 25 24 24 24 23 22 21 20 19 20 21 22 21 20 19 19 19 19 20 20 20 20 20 19 19 20 21 21 21 24 24 23 22 23 23 24 24 25 26 26 27 27 27 28 28 28 29 29 29 29 29 29 30 30 30 30 30 30 30 29 28 28 28 28
20 21 21 21 21 22 23 23 24 26 27 27 27 27 27 26 26 25 25 25 25 24 24 24 24 24 23 22 20 19 17 18 21 23 21 20 19 18 19 19 19 19 19 20 20 19 18 19 20 21 22 22 22 22 22 22 22 22 22 23 24 24 26 27 27 27 27 28 28 28 29 29 29 29 29 29 29 30 30 30 30 29 28 28 28 28
19 20 20 20 20 20 21 22 22 22 23 24 25 26 27 26 25 24 23 23 23 22 22 23 23 23 23 22 21 20 19 19 22 24 23 21 20 20 20 20 20 19 20 21 20 20 19 19 20 20 21 21 21 21 22 22 22 22 22 22 22 23 25 26 26 26 26 27 27 28 28 28 29 29 29 29 29 29 29 30 29 29 28 27 27 28
20 20 19 20 19 19 20 20 20 20 20 21 21 22 24 25 26 26 24 23 23 22 21 22 22 23 23 22 22 21 21 20 22 24 24 23 22 21 21 20 20 20 21 21 21 21 20 20 20 20 20 20 20 21 21 22 22 22 22 22 22 22 24 24 24 24 25 26 26 27 28 28 28 28 28 29 29 29 29 29 29 29 29 28 28 28
20 20 19 18 18 17 18 18 18 19 20 20 21 22 23 23 24 26 26 25 24 24 24 23 23 22 22 22 21 21 21 21 23 24 24 23 22 22 21 21 20 20 20 20 20 20 20 20 20 20 20 20 20 20 20 21 22 22 22 22 21 21 22 23 23 23 24 24 24 24 25 26 27 27 27 28 28 29 29 29 29 29 29 29 29 29
17 18 17 16 16 16 17 17 18 19 20 21 22 23 24 23 23 24 25 25 25 24 24 24 23 23 22 21 21 20 20 20 22 24 24 24 23 22 21 21 20 20 20 20 20 19 19 19 19 19 19 19 20 20 20 20 21 21 21 22 22 22 22 22 22 22 23 23 23 23 23 23 24 25 26 27 28 28 29 29 29 30 30 30 29 29
15 16 16 15 15 16 17 19 20 21 21 21 21 22 22 22 21 21 22 22 23 23 24 24 24 24 23 22 21 21 20 20 22 24 24 24 24 23 22 21 20 20 20 20 20 19 19 19 19 20 20 19 19 19 20 20 20 21 21 22 22 22 22 22 22 22 22 22 22 22 22 23 23 24 25 27 28 29 29 29 29 29 30 30 30 29
15 15 16 15 15 16 19 20 21 21 21 20 20 20 20 20 20 20 20 19 19 20 21 23 23 23 24 24 23 22 21 21 22 22 23 24 23 23 22 21 21 21 21 20 20 20 19 19 19 19 19 18 18 18 19 20 20 20 21 21 22 22 22 23 23 23 22 23 23 23 23 24 24 25 26 27 28 28 29 29 29 29 29 29 29 30
15 15 15 15 16 17 20 20 20 21 21 20 19 19 19 18 18 19 19 18 18 18 19 20 20 21 24 24 24 23 22 22 21 21 22 23 23 23 22 22 22 22 22 21 21 20 20 19 18 18 17 18 18 19 20 20 20 20 20 21 22 22 23 23 23 23 23 23 24 24 25 25 25 25 25 26 26 25 25 25 27 28 29 29 29 29
13 14 15 17 18 19 19 19 20 20 21 20 20 20 19 19 20 20 20 20 19 19 19 20 20 20 20 20 22 24 24 23 22 22 22 23 23 23 22 22 22 22 22 22 22 21 21 20 19 18 18 18 19 19 20 20 20 20 20 21 22 22 23 23 24 24 24 24 24 25 25 24 24 24 24 24 24 24 24 24 25 26 27 26 27 28
15 16 18 20 21 20 20 20 21 20 20 20 21 21 21 21 20 20 20 21 21 21 20 20 20 21 21 22 23 23 23 23 23 22 21 22 23 23 22 22 22 22 22 22 22 22 22 21 20 20 20 19 19 20 20 20 20 21 22 21 21 22 22 23 24 24 24 24 24 24 24 23 23 23 23 24 24 24 24 23 24 24 25 25 24 24
17 18 18 20 21 22 23 22 22 21 21 21 20 20 20 20 20 20 20 20 21 21 21 22 22 22 22 23 23 22 23 22 22 22 20 20 22 23 23 22 22 22 22 22 22 22 22 21 21 21 20 20 20 20 20 20 21 22 23 22 21 22 23 24 24 24 24 24 23 23 24 24 24 24 24 24 24 24 24 24 24 24 25 24 24 24
19 18 19 20 21 21 21 21 21 22 22 21 20 20 20 20 20 20 20 20 20 20 20 20 20 21 21 21 21 21 23 23 22 22 20 20 20 22 23 22 22 22 22 22 22 22 22 22 22 21 21 21 21 20 20 21 22 22 23 23 23 23 24 24 24 23 23 23 23 23 24 24 23 23 24 24 24 24 25 24 25 26 26 25 25 25
18 19 20 21 21 21 22 23 23 22 21 20 20 20 20 20 20 21 21 20 20 21 21 21 21 21 20 20 20 20 21 21 22 22 22 20 20 20 22 22 22 22 22 22 21 21 22 22 22 22 22 22 22 21 21 21 22 22 23 23 23 23 22 22 22 22 23 23 24 24 24 23 23 23 24 24 24 24 24 25 26 27 27 26 25 25
20 20 21 21 21 22 22 22 21 21 20 20 20 20 20 20 21 21 21 21 21 21 21 21 21 21 20 20 20 20 20 21 21 21 22 23 23 22 23 23 23 23 23 22 22 22 22 22 22 22 23 23 23 23 22 22 22 22 22 23 24 23 22 22 23 23 24 24 24 24 24 23 23 24 24 24 24 24 24 24 24 25 26 26 26 26
20 21 21 22 22 22 22 21 21 20 20 20 20 20 20 20 21 21 21 21 21 21 21 21 21 20 20 19 19 19 20 20 20 21 20 23 25 26 25 24 24 24 24 23 23 23 22 22 22 22 23 23 23 23 23 22 22 22 23 24 24 24 24 24 24 24 24 24 23 23 23 24 23 23 23 23 24 24 24 24 24 25 26 26 27 27
21 22 22 21 21 21 21 21 21 20 20 20 20 20 20 20 20 21 21 21 21 21 21 21 21 20 19 19 19 19 19 19 20 20 20 20 21 23 24 24 24 24 24 23 23 23 23 22 22 22 22 22 22 22 22 22 22 22 22 23 23 23 23 24 24 24 23 23 23 23 24 24 24 23 23 23 24 24 24 25 25 26 27 27 28 28
21 22 22 21 21 21 20 20 20 20 20 20 20 20 20 20 20 21 21 21 21 21 21 21 21 20 20 19 19 19 18 18 19 19 20 20 20 21 21 23 24 24 24 23 23 23 23 24 24 23 23 22 22 21 21 22 22 22 22 22 22 23 23 23 23 23 23 23 23 23 23 24 24 24 24 24 24 24 25 25 26 27 27 27 28 27
22 22 22 21 21 21 20 20 20 20 20 20 20 20 21 21 21 21 21 21 21 21 21 20 20 19 19 18 18 19 19 19 19 19 20 20 20 21 21 22 22 23 24 24 24 24 24 24 24 24 24 23 22 21 21 21 22 22 22 22 23 22 22 23 23 23 24 24 24 24 24 24 24 24 24 24 24 25 25 25 26 26 26 25 25 25
22 22 22 21 21 20 20 20 20 20 20 20 20 20 20 22 22 22 22 21 21 20 20 20 19 19 19 19 19 19 20 20 20 19 20 20 20 20 21 21 21 22 22 23 23 24 24 24 25 25 25 24 23 23 22 22 22 22 23 23 23 23 23 23 23 24 24 24 24 25 25 25 25 25 25 25 25 25 24 24 24 24 24 24 24 24
22 21 21 21 20 20 20 20 20 20 20 20 20 21 20 21 21 21 21 21 21 20 20 20 20 19 19 19 19 19 20 19 19 19 20 20 20 20 21 21 21 21 21 21 22 22 22 23 24 25 26 26 25 24 23 23 23 23 23 23 23 23 23 23 23 24 24 24 25 26 27 26 26 26 26 25 24 24 23 23 22 23 23 23 24 24
21 21 21 20 20 20 20 20 20 20 20 20 20 20 20 20 21 21 21 21 21 20 20 20 20 20 20 20 20 20 20 20 20 20 20 20 20 21 21 21 21 21 21 20 20 20 20 19 20 20 22 24 25 25 24 23 23 22 22 22 22 22 22 22 23 23 24 24 25 26 27 26 26 25 24 24 23 22 22 21 22 22 22 23 23 24